Weather History for Janesville, WI

Change the Weather History Date:

Friday, October 18, 2013

  Actual Average Record
Temperature  
Mean Temperature 42 °F -  
Max Temperature 48 °F 58 °F 76 °F (1990)
Min Temperature 35 °F 38 °F 24 °F (1992)
Degree Days  
Heating Degree Days 24    
Moisture  
Dew Point 37 °F    
Average Humidity 84    
Maximum Humidity 93    
Minimum Humidity 62    
Precipitation  
Precipitation 0.00 in - - ()
Sea Level Pressure  
Sea Level Pressure 29.87 in    
Wind  
Wind Speed 2 mph (West)    
Max Wind Speed 13 mph    
Max Gust Speed 17 mph    
Visibility 10 miles    
Events      
Averages and records for this station are not official NWS values.
T = Trace of Precipitation, MM = Missing Value Source: NWS Daily Summary

Daily Weather History Graph

Daily Weather History Graph

Search for Another Location

Airport:

Trip Planner

Search our weather history database for the weather conditions in past years. The results will help you decide how hot, cold, wet, or windy it might be!

Date:

Astronomy

Oct. 18, 2013 Rise Set
Actual Time 7:13 AM CDT 6:08 PM CDT
Civil Twilight 6:44 AM CDT 6:37 PM CDT
Nautical Twilight 6:11 AM CDT 7:09 PM CDT
Astronomical Twilight 5:39 AM CDT 7:42 PM CDT
Moon 5:58 PM CDT (10/18) 6:48 AM CDT (10/18)
Length of Visible Light 11h 52m
Length of Day
10h 55m
Full, 100% of the Moon is Illuminated
Oct 18
Full
Oct 18
Full
Oct 26
Last Quarter
Nov 3
New
Nov 9
First Quarter

Hourly Weather History & Observations

Time (CDT) Temp. Windchill Dew Point Humidity Pressure Visibility Wind Dir Wind Speed Gust Speed Precip Events Conditions
12:15 AM 41.0 °F - 37.4 °F 87% 29.83 in 10.0 mi Calm Calm - N/A   Clear
12:35 AM 41.0 °F - 37.4 °F 87% 29.83 in 7.0 mi Calm Calm - N/A   Clear
12:55 AM 39.2 °F - 35.6 °F 87% 29.83 in 10.0 mi Calm Calm - N/A   Clear
1:15 AM 39.2 °F - 37.4 °F 93% 29.83 in 10.0 mi Calm Calm - N/A   Clear
1:35 AM 37.4 °F - 35.6 °F 93% 29.83 in 10.0 mi Calm Calm - N/A   Clear
1:55 AM 37.4 °F - 35.6 °F 93% 29.83 in 10.0 mi Calm Calm - N/A   Clear
2:15 AM 37.4 °F - 35.6 °F 93% 29.82 in 10.0 mi Calm Calm - N/A   Clear
2:35 AM 37.4 °F - 35.6 °F 93% 29.81 in 10.0 mi Calm Calm - N/A   Clear
2:55 AM 37.4 °F - 33.8 °F 87% 29.81 in 10.0 mi Calm Calm - N/A   Clear
3:15 AM 37.4 °F - 35.6 °F 93% 29.81 in 10.0 mi Calm Calm - N/A   Clear
3:35 AM 37.4 °F - 33.8 °F 87% 29.81 in 10.0 mi Calm Calm - N/A   Clear
3:55 AM 35.6 °F - 33.8 °F 93% 29.81 in 10.0 mi Calm Calm - N/A   Clear
4:15 AM 37.4 °F - 35.6 °F 93% 29.81 in 7.0 mi Calm Calm - N/A   Clear
4:35 AM 37.4 °F - 33.8 °F 87% 29.81 in 10.0 mi Calm Calm - N/A   Clear
4:55 AM 35.6 °F - 33.8 °F 93% 29.81 in 10.0 mi Calm Calm - N/A   Clear
5:15 AM 37.4 °F - 33.8 °F 87% 29.81 in 10.0 mi Calm Calm - N/A   Clear
5:35 AM 37.4 °F - 33.8 °F 87% 29.82 in 10.0 mi Calm Calm - N/A   Clear
5:45 AM 37.4 °F - 33.8 °F 87% 29.83 in 10.0 mi Calm Calm - N/A   Clear
6:45 AM 39.2 °F 35.9 °F 37.4 °F 93% 29.84 in 10.0 mi Variable 4.6 mph - N/A   Scattered Clouds
7:45 AM 42.8 °F 37.5 °F 41.0 °F 93% 29.86 in 6.0 mi West 9.2 mph - N/A   Overcast
8:45 AM 46.4 °F 41.1 °F 42.8 °F 87% 29.88 in 6.0 mi West 11.5 mph - N/A   Haze
9:45 AM 46.4 °F 41.1 °F 42.8 °F 87% 29.90 in 7.0 mi West 11.5 mph 17.3 mph N/A   Overcast
10:45 AM 48.2 °F - 41.0 °F 76% 29.90 in 10.0 mi West 11.5 mph 17.3 mph N/A   Overcast
12:50 PM 48.2 °F - 37.4 °F 66% 29.91 in 10.0 mi WSW 11.5 mph 17.3 mph N/A   Overcast
1:45 PM 48.2 °F - 37.4 °F 66% 29.90 in 10.0 mi West 11.5 mph 17.3 mph N/A   Overcast
3:45 PM 48.2 °F - 37.4 °F 66% 29.91 in 10.0 mi WNW 11.5 mph - N/A   Overcast
4:45 PM 48.2 °F - 35.6 °F 62% 29.92 in 10.0 mi WNW 12.7 mph - N/A   Overcast
5:45 PM 46.4 °F 43.5 °F 35.6 °F 66% 29.93 in 10.0 mi WNW 5.8 mph - N/A   Overcast
6:45 PM 44.6 °F - 35.6 °F 71% 29.94 in 10.0 mi Calm Calm - N/A   Clear
7:45 PM 44.6 °F - 37.4 °F 76% 29.95 in 10.0 mi Calm Calm - N/A   Clear
8:45 PM 44.6 °F - 37.4 °F 76% 29.94 in 10.0 mi Calm Calm - N/A   Scattered Clouds
9:15 PM 41.0 °F - 35.6 °F 81% 29.93 in 10.0 mi Calm Calm - N/A   Scattered Clouds
9:35 PM 41.0 °F - 37.4 °F 87% 29.93 in 10.0 mi Calm Calm - N/A   Scattered Clouds
9:55 PM 41.0 °F - 37.4 °F 87% 29.94 in 10.0 mi Calm Calm - N/A   Mostly Cloudy
10:15 PM 41.0 °F - 37.4 °F 87% 29.94 in 10.0 mi Calm Calm - N/A   Mostly Cloudy
10:35 PM 41.0 °F - 37.4 °F 87% 29.93 in 10.0 mi Calm Calm - N/A   Mostly Cloudy
10:55 PM 41.0 °F 39.0 °F 37.4 °F 87% 29.93 in 10.0 mi SW 3.5 mph - N/A   Mostly Cloudy
11:15 PM 41.0 °F 39.0 °F 35.6 °F 81% 29.93 in 10.0 mi SSW 3.5 mph - N/A   Mostly Cloudy
11:35 PM 41.0 °F - 37.4 °F 87% 29.92 in 10.0 mi Calm Calm - N/A   Overcast
11:55 PM 41.0 °F - 37.4 °F 87% 29.91 in 10.0 mi Calm Calm - N/A   Overcast